Showing default

ANGOSAT 1, 43087

Orbit data source: Space-Track

ANGOSAT 1, 43087 is a payload satellite owned by GGPEN (AO) in GEO that was launched on Tue, 26 Dec 2017 UTC via a ZENIT-3SLBF launch vehicle from the Tyuratam Missile And Space Complex (TTMTR). Payload-class satellites include a variety of spacecraft equipped with specific instruments for various scientific and technological missions. These include communications satellites like Starlink; space stations such as the ISS; scientific satellites like the Hubble; Earth observation satellites from companies like Planet Labs, Umbra, and HawkEye 360; GPS; miniature CubeSats for education and research; and military/defense satellites.

Loading next visibility...
Identifier
43087, 2017-086A
Orbit
GEO
Country
Flag of AOAO / AGO
Related business
Manufacturer
RKKE
Mission
Non-operational Civil Communications
Bus & Motor
YAMAL 100, Unknown motor
Mass
1,647 kg wet, ~1,400 kg dry
Launch date (UTC)
2017-12-26 (8 years ago)
Launch vehicle
ZENIT-3SLBF
Launch site
Tyuratam Missile And Space Complex (TTMTR)
Object type
Payload
Rocket body
Debris
Shape & HBR
Box + 2 Pan, 6.0 m
Radar Cross Section
11.377 m², Large (>1 m²)

Expand to show TLE details & history
Last TLE update: 13 hours ago

TLE from 13 hours ago
0 ANGOSAT 1
1 43087U 17086A   25307.57761059  .00000064  00000-0  00000+0 0  9990
2 43087   7.0124  69.8945 0021675 169.0318 217.7095  0.99380574 28497
Epoch: 2025-11-03T13:51Z
TLE epoch observation values (Epoch: 2025-11-03T13:51:45.554Z)
Latitude
3.12938°
Longitude
-154.74212°
Altitude
36,110.416 km
Speed
3.06 km/s
True Right ascension
06h 25m 05s
True Declination
3° 07' 34"
Sunlit
Object was in daylight at epoch
Visualization orbit readout
Latitude
Unknown
Longitude
Unknown
Altitude
Unknown
Speed
Unknown
Apparent Right ascension
Unknown
Apparent Declination
Unknown
Sunlit
N/A
Visualization observer readout
Local Sidereal Time
23:15:45
Azimuth
Unknown
Elevation
Unknown
Doppler factor
Unknown
Orbital elements
Apogee altitude
36,131.28 km
Perigee altitude
35,947.4 km
Semi-major axis
42,417.477 km
Eccentricity
0.00217
Inclination
7.0124°
RAAN
69.8945°
Arg. of periapsis
169.0318°
True anomaly
217.5579°
Mean anomaly
217.7095°
Eccentric anomaly
217.63367°
Mean motion
0.24844 °/min
Orbital period
1,449.03 mins
BSTAR
0
Loading maneuver chart data...
Computing Atmospheric mass density...
Loading historical data...
Loading historical data...
Loading historical data...
Loading historical data...
Loading historical data...
Loading historical data...
Loading historical data...

Documentation

Showing up to 5 results
|